DW4844 Weather Reports


Display with metric or nautical units.
time (UTC)temp
F
wind
direction
speed
MPH
gust
MPH
rain 1hr
in
rain 24hr
in
rain mn
in
humidity
%
barometer
mb
20260507235217 43 0.0 0.0 0.00 0.00 0.00 75 1018.0
20260507234217 42 0.0 0.0 0.00 0.00 0.00 77 1018.0
20260507233217 42 0.0 0.0 0.00 0.00 0.00 79 1018.0
20260507232237 42 0.0 0.0 0.00 0.00 0.00 79 1018.1
20260507231217 42 0.0 0.0 0.00 0.00 0.00 80 1018.1
20260507230217 42 0.0 0.0 0.00 0.00 0.00 80 1018.1
20260507225217 42 0.0 0.0 0.00 0.00 0.00 80 1018.1
20260507224257 42 0.0 0.0 0.00 0.00 0.00 80 1018.1
20260507223217 42 0.0 0.0 0.00 0.00 0.00 80 1018.0
20260507222217 42 0.0 0.0 0.00 0.00 0.00 80 1018.0
20260507221217 42 0.0 0.0 0.00 0.00 0.00 81 1017.9
20260507220237 42 0.0 0.0 0.00 0.00 0.00 80 1018.0
20260507215237 42 0.0 0.0 0.00 0.00 0.00 79 1018.0
20260507214217 42 0.0 0.0 0.00 0.00 0.00 78 1018.0
20260507213217 43 0.0 0.0 0.00 0.00 0.00 78 1017.9
20260507212217 43 0.0 0.0 0.00 0.00 0.00 77 1017.9
20260507211257 41 0.0 0.0 0.00 0.00 0.00 78 1017.8
20260507210217 40 0.0 0.0 0.00 0.00 0.00 76 1017.9
20260507205217 40 0.0 0.0 0.00 0.00 0.00 75 1017.9
20260507204217 41 0.0 0.0 0.00 0.00 0.00 74 1017.8
20260507203217 42 0.0 0.0 0.00 0.00 0.00 72 1017.9
20260507202217 42 0.0 0.0 0.00 0.00 0.00 70 1017.9
20260507201217 43 0.0 0.0 0.00 0.00 0.00 69 1017.8
20260507200217 44 0.0 0.0 0.00 0.00 0.00 67 1017.7
20260507195217 44 0.0 0.0 0.00 0.00 0.00 66 1017.6
20260507194217 45 0.0 0.0 0.00 0.00 0.00 65 1017.4
20260507193217 46 0.0 0.0 0.00 0.00 0.00 64 1017.5
20260507192217 47 0.0 0.0 0.00 0.00 0.00 62 1017.3
20260507191217 47 0.0 0.0 0.00 0.00 0.00 60 1017.3
20260507190257 48 0.0 0.0 0.00 0.00 0.00 57 1017.3
20260507185217 50 0.0 0.0 0.00 0.00 0.00 54 1017.1
20260507184217 50 0.0 0.0 0.00 0.00 0.00 53 1017.0
20260507183217 51 0.0 0.0 0.00 0.00 0.00 51 1017.0
20260507182217 51 0.0 0.0 0.00 0.00 0.00 49 1017.0
20260507181217 52 0.0 0.0 0.00 0.00 0.00 48 1016.9
20260507180217 52 0.0 0.0 0.00 0.00 0.00 50 1017.0
20260507175217 52 0.0 0.0 0.00 0.00 0.00 49 1016.9
20260507174217 52 0.0 0.0 0.00 0.00 0.00 49 1016.9
20260507173217 52 0.0 0.0 0.00 0.00 0.00 49 1016.8
20260507172217 52 0.0 0.0 0.00 0.00 0.00 49 1016.8
20260507171237 53 0.0 0.0 0.00 0.00 0.00 47 1016.7
20260507170217 53 0.0 0.0 0.00 0.00 0.00 47 1016.8
20260507165217 54 0.0 0.0 0.00 0.00 0.00 46 1016.7
20260507164217 54 0.0 0.0 0.00 0.00 0.00 46 1016.7
20260507163215 55 0.0 0.0 0.00 0.00 0.00 45 1016.7
20260507162237 55 0.0 0.0 0.00 0.00 0.00 43 1016.7
20260507161217 55 0.0 0.0 0.00 0.00 0.00 44 1016.7
20260507160257 55 0.0 0.0 0.00 0.00 0.00 44 1016.8
20260507155217 55 0.0 0.0 0.00 0.00 0.00 42 1016.9
20260507154217 55 0.0 0.0 0.00 0.00 0.00 44 1016.9
20260507153217 55 0.0 0.0 0.00 0.00 0.00 44 1017.0
20260507152217 56 0.0 0.0 0.00 0.00 0.00 41 1016.9
20260507151237 56 0.0 0.0 0.00 0.00 0.00 43 1017.0
20260507150217 56 0.0 0.0 0.00 0.00 0.00 41 1016.9
20260507145237 55 0.0 0.0 0.00 0.00 0.00 43 1017.0
20260507144217 55 0.0 0.0 0.00 0.00 0.00 44 1016.9
20260507143217 54 0.0 0.0 0.00 0.00 0.00 43 1016.8
20260507142217 55 0.0 0.0 0.00 0.00 0.00 46 1017.0
20260507141217 55 0.0 0.0 0.00 0.00 0.00 46 1017.1
20260507140217 56 0.0 0.0 0.00 0.00 0.00 44 1016.9
20260507135217 57 0.0 0.0 0.00 0.00 0.00 44 1016.9
20260507134217 56 0.0 0.0 0.00 0.00 0.00 45 1017.0
20260507133217 57 0.0 0.0 0.00 0.00 0.00 42 1016.9
20260507132217 58 0.0 0.0 0.00 0.00 0.00 37 1016.9
20260507131217 57 0.0 0.0 0.00 0.00 0.00 31 1016.8
20260507130237 57 0.0 0.0 0.00 0.00 0.00 28 1016.8
20260507125257 58 0.0 0.0 0.00 0.00 0.00 31 1016.7
20260507124217 58 0.0 0.0 0.00 0.00 0.00 28 1016.7
20260507123237 57 0.0 0.0 0.00 0.00 0.00 28 1016.6
20260507122217 57 0.0 0.0 0.00 0.00 0.00 29 1016.7
20260507121217 57 0.0 0.0 0.00 0.00 0.00 30 1016.8
20260507120257 57 0.0 0.0 0.00 0.00 0.00 31 1016.6
20260507115217 57 0.0 0.0 0.00 0.00 0.00 30 1016.6
20260507114217 57 0.0 0.0 0.00 0.00 0.00 34 1016.7
20260507113217 57 0.0 0.0 0.00 0.00 0.00 35 1016.7
20260507112237 55 0.0 0.0 0.00 0.00 0.00 39 1016.6
20260507111217 55 0.0 0.0 0.00 0.00 0.00 40 1016.7
20260507110217 55 0.0 0.0 0.00 0.00 0.00 42 1016.7
20260507105217 55 0.0 0.0 0.00 0.00 0.00 42 1016.6
20260507104217 54 0.0 0.0 0.00 0.00 0.00 43 1016.6
20260507103217 54 0.0 0.0 0.00 0.00 0.00 41 1016.7
20260507102217 54 0.0 0.0 0.00 0.00 0.00 42 1016.6
20260507101217 53 0.0 0.0 0.00 0.00 0.00 43 1016.6
20260507100217 53 0.0 0.0 0.00 0.00 0.00 43 1016.5
20260507095217 54 0.0 0.0 0.00 0.00 0.00 44 1016.6
20260507094217 52 0.0 0.0 0.00 0.00 0.00 43 1016.6
20260507093237 52 0.0 0.0 0.00 0.00 0.00 43 1016.6
20260507092217 51 0.0 0.0 0.00 0.00 0.00 40 1016.6
20260507091237 51 0.0 0.0 0.00 0.00 0.00 45 1016.6
20260507090257 50 0.0 0.0 0.00 0.00 0.00 48 1016.5
20260507085217 49 0.0 0.0 0.00 0.00 0.00 51 1016.5
20260507084217 49 0.0 0.0 0.00 0.00 0.00 52 1016.5
20260507083217 48 0.0 0.0 0.00 0.00 0.00 52 1016.5
20260507082217 48 0.0 0.0 0.00 0.00 0.00 53 1016.4
20260507081217 47 0.0 0.0 0.00 0.00 0.00 54 1016.4
20260507080217 47 0.0 0.0 0.00 0.00 0.00 55 1016.4
20260507075237 47 0.0 0.0 0.00 0.00 0.00 56 1016.4
20260507074217 46 0.0 0.0 0.00 0.00 0.00 58 1016.4
20260507073237 46 0.0 0.0 0.00 0.00 0.00 59 1016.3
20260507072217 45 0.0 0.0 0.00 0.00 0.00 61 1016.3
20260507071217 45 0.0 0.0 0.00 0.00 0.00 63 1016.4
20260507070217 44 0.0 0.0 0.00 0.00 0.00 66 1016.4
20260507065217 44 0.0 0.0 0.00 0.00 0.00 68 1016.4
20260507064217 43 0.0 0.0 0.00 0.00 0.00 71 1016.4
20260507063217 43 0.0 0.0 0.00 0.00 0.00 74 1016.3
20260507062217 41 0.0 0.0 0.00 0.00 0.00 80 1016.2
20260507061217 40 0.0 0.0 0.00 0.00 0.00 81 1016.1
20260507060217 39 0.0 0.0 0.00 0.00 0.00 84 1016.2
20260507055217 38 0.0 0.0 0.00 0.00 0.00 84 1016.2
20260507054217 38 0.0 0.0 0.00 0.00 0.00 85 1016.2
20260507053217 37 0.0 0.0 0.00 0.00 0.00 87 1016.2
20260507052217 36 0.0 0.0 0.00 0.00 0.00 88 1016.1
20260507051217 36 0.0 0.0 0.00 0.00 0.00 88 1016.0
20260507050257 35 0.0 0.0 0.00 0.00 0.00 89 1016.0
20260507045217 34 0.0 0.0 0.00 0.00 0.00 90 1016.0
20260507044217 34 0.0 0.0 0.00 0.00 0.00 90 1015.9
20260507043217 33 0.0 0.0 0.00 0.00 0.00 90 1015.9
20260507042217 33 0.0 0.0 0.00 0.00 0.00 91 1015.8
20260507041217 32 0.0 0.0 0.00 0.00 0.00 90 1015.8
20260507040237 32 0.0 0.0 0.00 0.00 0.00 90 1015.8
20260507035217 32 0.0 0.0 0.00 0.00 0.00 89 1015.7
20260507034217 32 0.0 0.0 0.00 0.00 0.00 89 1015.7
20260507033217 32 0.0 0.0 0.00 0.00 0.00 90 1015.6
20260507032217 32 0.0 0.0 0.00 0.00 0.00 89 1015.7
20260507031237 32 0.0 0.0 0.00 0.00 0.00 89 1015.7
20260507030217 32 0.0 0.0 0.00 0.00 0.00 88 1015.7
20260507025217 32 0.0 0.0 0.00 0.00 0.00 87 1015.7
20260507024217 33 0.0 0.0 0.00 0.00 0.00 87 1015.6
20260507023217 33 0.0 0.0 0.00 0.00 0.00 87 1015.5
20260507022237 34 0.0 0.0 0.00 0.00 0.00 87 1015.5
20260507021237 34 0.0 0.0 0.00 0.00 0.00 86 1015.4
20260507020217 34 0.0 0.0 0.00 0.00 0.00 86 1015.4
20260507015217 35 0.0 0.0 0.00 0.00 0.00 86 1015.4
20260507014217 35 0.0 0.0 0.00 0.00 0.00 85 1015.3
20260507013217 36 0.0 0.0 0.00 0.00 0.00 84 1015.3
20260507012217 37 0.0 0.0 0.00 0.00 0.00 83 1015.1
20260507011317 38 0.0 0.0 0.00 0.00 0.00 85 1015.1
20260507010217 37 0.0 0.0 0.00 0.00 0.00 87 1015.1
20260507005217 36 0.0 0.0 0.00 0.00 0.00 86 1015.3
20260507004217 36 0.0 0.0 0.00 0.00 0.00 85 1015.1
20260507003217 36 0.0 0.0 0.00 0.00 0.00 85 1015.2
20260507002217 37 0.0 0.0 0.00 0.00 0.00 85 1015.1
20260507001217 36 0.0 0.0 0.00 0.00 0.00 85 1015.0
20260507000219 37 0.0 0.0 0.00 0.00 0.00 85 1015.1